This demonstration page uses our WeatherBlox Daily Observations layout. Learn more.

Left ArrowRight Arrow

36.17497, -115.13722

Hourly Observations for March 27, 2015

Temp ( °F °C ) Dew Point ( °F °C ) Humidity (%) Winds ( mph kmh ) Pressure ( in mb ) Visibility ( mi km ) Precip ( " mm )
12:53 am 00:53 Clear 61 16.1 27 -2.8 27 27 NNW 3 6 30.18 1022 10 16 N/A
1:53 am 01:53 Clear 59 15 26 -3.3 28 28 NW 6 9 30.17 1022 10 16 N/A
2:53 am 02:53 Clear 59 15 28 -2.2 31 31 NNW 6 9 30.16 1022 10 16 N/A
3:53 am 03:53 Clear 59 15 29 -1.7 32 32 NW 6 9 30.16 1021 10 16 N/A
4:53 am 04:53 Clear 58 14.4 27 -2.8 31 31 NW 5 7 30.16 1021 10 16 N/A
5:53 am 05:53 Clear 58 14.4 28 -2.2 32 32 N N/A 30.16 1022 10 16 N/A
6:53 am 06:53 Sunny 57 13.9 28 -2.2 33 33 N N/A 30.19 1022 10 16 N/A
7:53 am 07:53 Sunny 61 16.1 28 -2.2 29 29 N N/A 30.19 1022 10 16 N/A
8:53 am 08:53 Sunny 69 20.6 24 -4.4 18 18 N 5 7 30.20 1023 10 16 N/A
9:53 am 09:53 Sunny 72 22.2 24 -4.4 17 17 N N/A 30.20 1023 10 16 N/A
10:53 am 10:53 Sunny 74 23.3 22 -5.6 14 14 N N/A 30.20 1023 10 16 N/A
11:53 am 11:53 Sunny 77 25 22 -5.6 13 13 S 3 6 30.18 1022 10 16 N/A
12:53 pm 12:53 Sunny 79 26.1 22 -5.6 12 12 VRB 3 6 30.15 1021 10 16 N/A
1:53 pm 13:53 Sunny 82 27.8 20 -6.7 10 10 SSE 6 9 30.11 1020 10 16 N/A
2:53 pm 14:53 Sunny 83 28.3 19 -7.2 9 9 VRB 3 6 30.08 1019 10 16 N/A
3:53 pm 15:53 Sunny 84 28.9 19 -7.2 9 9 SSW 5 7 30.05 1018 10 16 N/A
4:53 pm 16:53 Sunny 85 29.4 18 -7.8 8 8 N N/A 30.03 1017 10 16 N/A
5:53 pm 17:53 Sunny 86 30 18 -7.8 8 8 E 3 6 30.01 1016 10 16 N/A
6:53 pm 18:53 Sunny 83 28.3 19 -7.2 9 9 E 6 9 30.02 1017 10 16 N/A
7:53 pm 19:53 Clear 80 26.7 20 -6.7 10 10 N N/A 30.03 1017 10 16 N/A
8:53 pm 20:53 Clear 78 25.6 22 -5.6 12 12 N N/A 30.04 1017 10 16 N/A
9:53 pm 21:53 Clear 73 22.8 29 -1.7 19 19 WNW 6 9 30.05 1018 10 16 N/A
10:53 pm 22:53 Clear 69 20.6 29 -1.7 22 22 NNW 5 7 30.05 1018 10 16 N/A
11:53 pm 23:53 Clear 66 18.9 28 -2.2 24 24 NW 3 6 30.05 1018 10 16 N/A

Powered by AerisWeather